#timestamp,LO_Frequency,Hit,StdDev 
1458723615.0,286046998.3,N
1458723615.9,286046998.3,N
1458723635.8,286046997.0,N
1458723655.6,286046997.9,N
1458723675.4,286046996.4,N
1458723695.3,286046995.8,N
1458723715.1,286046997.5,N
1458723716.0,286046997.5,N
1458723735.8,286046992.1,N
1458723755.7,286046988.7,Y
1458723775.5,286046991.0,P
1458723795.3,286046992.7,N
1458723815.1,286046990.1,N
1458723835.9,286046991.8,N
1458723855.7,286046992.1,N
1458723875.5,286046992.9,N
1458723895.4,286046994.0,N
1458723915.2,286046990.5,Y
1458723935.0,286046998.7,P
1458723935.9,286046998.7,N
1458723955.8,286046995.4,N
1458723975.6,286046992.3,Y
1458723995.4,286046996.8,P
1458724015.3,286046998.0,P
1458724035.1,286046995.8,P
1458724055.9,286046994.0,Y
1458724075.7,286046996.2,P
1458724095.5,286046995.3,P
1458724115.3,286046995.0,P
1458724135.2,286046999.4,N
1458724155.0,286046998.9,N
1458724155.9,286046998.9,N
1458724175.7,286047000.5,N
1458724195.6,286047001.0,N
1458724215.4,286047001.1,N
1458724235.2,286047000.9,N
1458724255.1,286046996.5,N
1458724256.0,286046996.5,N
1458724275.8,286046995.7,N
1458724295.6,286046994.3,N
1458724315.5,286046996.3,N
1458724335.3,286046994.1,N
1458724355.1,286046995.8,N
1458724375.9,286046992.3,Y
1458724395.7,286046994.2,P
1458724415.5,286046994.2,P
1458724435.4,286046993.7,P
1458724455.2,286046996.3,N
1458724475.0,286046995.0,Y
1458724475.9,286046995.0,P
1458724495.8,286047000.8,P
1458724515.6,286047001.0,N
1458724535.4,286047001.0,N
1458724555.3,286047002.7,N
1458724575.1,286047005.4,N
1458724576.0,286047005.4,N
1458724595.8,286047004.5,N
1458724615.7,286046999.7,N
1458724635.5,286046999.7,N
1458724655.3,286047000.6,N
1458724675.1,286046997.0,N
1458724695.9,286046997.8,N
1458724715.7,286046996.8,N
1458724735.5,286046997.4,N
1458724755.4,286046995.0,N
1458724775.2,286047000.3,N
1458724795.0,286047000.5,N
1458724795.9,286047000.5,N
1458724815.8,286046999.1,N
1458724835.6,286046991.7,N
1458724855.4,286046994.1,N
1458724875.3,286046994.8,N
1458724895.1,286046995.7,N
1458724896.0,286046995.7,N
1458724915.8,286046995.5,N
1458724935.7,286047001.1,N
1458724955.5,286046996.7,N
1458724975.3,286047000.1,N
1458724995.1,286047001.3,N
1458725015.9,286047001.9,N
1458725035.7,286047002.1,N
1458725055.5,286047003.4,N
1458725075.4,286047001.9,N
1458725095.2,286047001.6,N
1458725115.0,286047005.5,N
1458725115.9,286047005.5,N
1458725135.8,286047006.3,N
1458725155.6,286047008.3,N
1458725175.4,286047008.3,N
1458725195.3,286047008.0,N
1458725215.1,286047008.9,N
1458725216.0,286047008.9,N
1458725235.8,286047012.2,N
1458725255.7,286047012.1,N
1458725275.5,286047013.0,N
1458725295.3,286047012.6,N
1458725315.2,286047013.3,N
1458725335.9,286047016.3,N
1458725355.7,286047017.1,N
1458725375.5,286047017.0,N
1458725395.4,286047016.3,N
1458725415.2,286047015.0,N
1458725435.0,286047014.9,N
1458725435.9,286047014.9,N
1458725455.8,286047011.1,N
1458725475.6,286047008.0,N
1458725495.4,286047008.4,N
1458725515.3,286047006.2,N
1458725535.1,286047004.4,N
1458725536.0,286047004.4,N
1458725555.8,286047000.8,N
1458725575.7,286046998.1,N
1458725595.5,286047000.1,N
1458725615.3,286047003.8,N
1458725635.2,286046996.5,N
1458725655.9,286046998.0,N
1458725675.7,286046993.7,N
1458725695.6,286046999.5,N
1458725715.4,286046998.9,N
1458725735.2,286047000.8,N
1458725755.0,286047000.4,N
1458725755.9,286047000.4,N
1458725775.8,286046998.1,N
1458725795.6,286047002.4,N
1458725815.4,286047007.5,N
1458725835.3,286047003.0,N
1458725855.1,286047005.4,N
1458725875.8,286047006.7,N
1458725895.7,286047009.2,N
1458725915.5,286047008.0,N
1458725935.3,286047008.3,N
1458725955.2,286047005.0,N
1458725975.9,286047007.9,N
1458725995.7,286047008.8,N
1458726015.6,286047004.8,N
1458726035.4,286047007.2,N
1458726055.2,286047009.2,N
1458726075.0,286047008.3,N
1458726076.0,286047008.3,N
1458726095.8,286047013.8,Y
1458726115.6,286047014.0,P
1458726135.5,286047011.5,N
1458726155.3,286047013.6,P
1458726175.1,286047015.2,Y
1458726195.9,286047003.0,P
1458726215.7,286047007.1,N
1458726235.5,286047007.4,N
1458726255.4,286047008.3,Y
1458726275.2,286047003.1,P
1458726295.0,286047005.4,N
1458726295.9,286047005.4,P
1458726315.8,286047005.2,Y
1458726335.6,286047002.5,P
1458726355.4,286047004.1,N
1458726375.3,286047002.0,N
1458726395.1,286047001.2,N
1458726396.0,286047001.2,N
1458726415.8,286047000.3,N
1458726435.7,286047006.0,Y
1458726455.5,286047005.3,P
1458726475.3,286047005.4,P
1458726495.2,286047005.2,P
1458726515.9,286046999.7,N
1458726535.7,286046998.9,N
1458726555.5,286047000.9,N
1458726575.4,286046997.9,N
1458726595.2,286046998.5,N
1458726615.0,286047000.7,N
1458726615.9,286047000.7,N
1458726635.8,286046995.8,N
1458726655.6,286046995.9,N
1458726675.4,286046996.4,N
1458726695.3,286046994.6,N
1458726715.1,286046996.2,N
1458726716.0,286046996.2,N
1458726735.8,286046993.7,N
1458726755.7,286046996.2,N
1458726775.5,286046996.4,N
1458726795.3,286046994.4,N
1458726815.2,286046987.0,Y
1458726835.9,286046989.5,P
1458726855.7,286046991.5,N
1458726875.6,286046989.5,N
1458726895.4,286046987.5,Y
1458726915.2,286046995.2,P
1458726935.1,286046994.3,P
1458726936.0,286046994.3,P
1458726955.8,286046993.2,Y
1458726975.6,286046996.8,P
1458726995.5,286046997.2,N
1458727015.3,286046997.9,N
1458727035.1,286046994.9,Y
1458727055.9,286046999.1,P
1458727075.7,286047000.8,N
1458727095.5,286046999.4,N
1458727115.4,286046993.7,Y
1458727135.2,286046995.7,P
1458727155.0,286046990.9,P
1458727155.9,286046990.9,N
1458727175.8,286046988.7,Y
1458727195.6,286046995.1,P
